カタログに戻る

ABS 2A

運用中通信GEO
NORAD 41588·PAYLOAD·🇦🇪 UAE🇧🇲 BM

打ち上げ Jun 15, 2016 から Cape Canaveral Space Force Station

Loading…

TLE

最新Source: Space-Track

元期: Sep 14, 2026, 14:09 UTC

1 41588U 16038A   26257.58992108  .00000000  00000-0  00000-0 0  9998
2 41588   0.0207 169.1315 0001998 315.3250 156.1896  1.00270498 37602

AllMySatでABS 2Aをリアルタイム追跡

Download on the App Store